Fort Meade, MD

1:26 AM EDT on April 27, 2017 (GMT -0400)
Tipton

Weather History for KFME - May, 2014

Change the Weather History Date:

Monday, May 12, 2014

  Actual Average (KBWI) Record (KBWI)
Temperature  
Mean Temperature 68 °F -  
Max Temperature 84 °F 75 °F 94 °F (1881)
Min Temperature 51 °F 51 °F 35 °F (1963)
Cooling Degree Days 2    
Growing Degree Days 18 (Base 50)    
Moisture  
Dew Point 58 °F    
Average Humidity 74    
Maximum Humidity 100    
Minimum Humidity 37    
Precipitation  
Precipitation 0.00 in - - ()
Sea Level Pressure  
Sea Level Pressure 30.12 in    
Wind  
Wind Speed 1 mph (SW)    
Max Wind Speed 13 mph    
Max Gust Speed 26 mph    
Visibility 8 miles    
Events      
Averages and records for this station are not official NWS values.
T = Trace of Precipitation, MM = Missing Value Source: NWS Daily Summary

Daily Weather History Graph

Daily Weather History Graph

Search for Another Location

Airport or City:

Trip Planner

Search our weather history database for the weather conditions in past years. The results will help you decide how hot, cold, wet, or windy it might be!

Date:

Astronomy

May. 12, 2014 Rise Set
Actual Time 5:56 AM EDT 8:10 PM EDT
Civil Twilight 5:27 AM EDT 8:40 PM EDT
Nautical Twilight 4:50 AM EDT 9:17 PM EDT
Astronomical Twilight 4:10 AM EDT 9:57 PM EDT
Moon 6:07 PM EDT (5/12) 4:33 AM EDT (5/12)
Length of Visible Light 15h 13m
Length of Day
14h 13m
Waxing Gibbous, 95% of the Moon is Illuminated
May 12
Waxing Gibbous
May 14
Full
May 21
Last Quarter
May 28
New
Jun 5
First Quarter

Hourly Weather History & Observations

Time (EDT) Temp. Heat Index Dew Point Humidity Pressure Visibility Wind Dir Wind Speed Gust Speed Precip Events Conditions
12:03 AM 55.4 °F - 53.6 °F 94% 30.15 in 10.0 mi Calm Calm - N/A   Clear
12:24 AM 55.4 °F - 53.6 °F 94% 30.15 in 10.0 mi Calm Calm - N/A   Clear
1:03 AM 53.6 °F - 51.8 °F 94% 30.14 in 10.0 mi Calm Calm - N/A   Clear
1:24 AM 53.6 °F - 51.8 °F 94% 30.15 in 10.0 mi Calm Calm - N/A   Clear
2:03 AM 53.6 °F - 51.8 °F 94% 30.14 in 10.0 mi Calm Calm - N/A   Clear
2:24 AM 53.6 °F - 51.8 °F 94% 30.13 in 10.0 mi Calm Calm - N/A   Clear
2:45 AM 53.6 °F - 51.8 °F 94% 30.13 in 10.0 mi Calm Calm - N/A   Clear
3:03 AM 53.6 °F - 51.8 °F 94% 30.13 in 10.0 mi Calm Calm - N/A   Clear
3:24 AM 53.6 °F - 51.8 °F 94% 30.13 in 7.0 mi Calm Calm - N/A   Clear
4:03 AM 53.6 °F - 51.8 °F 94% 30.12 in 10.0 mi Calm Calm - N/A   Clear
4:24 AM 51.8 °F - 50.0 °F 94% 30.12 in 7.0 mi Calm Calm - N/A   Clear
4:45 AM 51.8 °F - 50.0 °F 94% 30.12 in 7.0 mi Calm Calm - N/A   Clear
5:03 AM 51.8 °F - 50.0 °F 94% 30.12 in 7.0 mi Calm Calm - N/A   Clear
5:24 AM 51.8 °F - 50.0 °F 94% 30.12 in 7.0 mi Calm Calm - N/A   Clear
5:45 AM 51.8 °F - 50.0 °F 94% 30.13 in 7.0 mi Calm Calm - N/A   Clear
6:03 AM 51.8 °F - 50.0 °F 94% 30.13 in 5.0 mi Calm Calm - N/A   Clear
6:45 AM 51.8 °F - 51.8 °F 100% 30.14 in 7.0 mi Calm Calm - N/A   Clear
7:06 AM 53.6 °F - 51.8 °F 94% 30.15 in 10.0 mi Calm Calm - N/A   Clear
7:24 AM 55.4 °F - 55.4 °F 100% 30.16 in 10.0 mi Calm Calm - N/A   Clear
7:45 AM 60.8 °F - 57.2 °F 88% 30.16 in 10.0 mi Calm Calm - N/A   Clear
8:06 AM 62.6 °F - 59.0 °F 88% 30.16 in 10.0 mi Calm Calm - N/A   Clear
8:24 AM 62.6 °F - 59.0 °F 88% 30.16 in 10.0 mi Calm Calm - N/A   Clear
8:45 AM 64.4 °F - 60.8 °F 88% 30.16 in 10.0 mi Calm Calm - N/A   Clear
9:06 AM 66.2 °F - 59.0 °F 78% 30.16 in 10.0 mi Calm Calm - N/A   Clear
9:24 AM 68.0 °F - 60.8 °F 78% 30.15 in 10.0 mi Calm Calm - N/A   Clear
9:45 AM 71.6 °F - 60.8 °F 69% 30.15 in 10.0 mi South 3.5 mph - N/A   Clear
10:06 AM 71.6 °F - 60.8 °F 69% 30.15 in 10.0 mi Calm Calm - N/A   Clear
10:24 AM 75.2 °F - 60.8 °F 61% 30.15 in 10.0 mi Calm Calm - N/A   Clear
10:45 AM 77.0 °F - 62.6 °F 61% 30.15 in 10.0 mi Calm Calm - N/A   Clear
11:24 AM 78.8 °F - 60.8 °F 54% 30.14 in 10.0 mi WSW 4.6 mph - N/A   Clear
11:45 AM 80.6 °F 81.5 °F 60.8 °F 51% 30.14 in 10.0 mi SW 3.5 mph - N/A   Clear
12:06 PM 82.4 °F 82.9 °F 60.8 °F 48% 30.14 in 10.0 mi SW 5.8 mph - N/A   Clear
12:24 PM 82.4 °F 82.9 °F 60.8 °F 48% 30.13 in 10.0 mi SSW 5.8 mph - N/A   Clear
1:06 PM 82.4 °F 82.9 °F 60.8 °F 48% 30.12 in 10.0 mi SW 4.6 mph - N/A   Mostly Cloudy
1:24 PM 82.4 °F 82.5 °F 59.0 °F 45% 30.11 in 10.0 mi SSW 4.6 mph - N/A   Mostly Cloudy
1:45 PM 82.4 °F 82.5 °F 59.0 °F 45% 30.11 in 10.0 mi SW 5.8 mph - N/A   Mostly Cloudy
2:06 PM 80.6 °F 81.5 °F 60.8 °F 51% 30.11 in 10.0 mi SW 5.8 mph - N/A   Overcast
2:24 PM 78.8 °F - 60.8 °F 54% 30.10 in 10.0 mi SE 4.6 mph - N/A   Mostly Cloudy
3:24 PM 82.4 °F 83.4 °F 62.6 °F 51% 30.09 in 10.0 mi SSW 5.8 mph - N/A   Mostly Cloudy
3:45 PM 84.2 °F 84.4 °F 60.8 °F 45% 30.08 in 10.0 mi South 8.1 mph - N/A   Scattered Clouds
4:06 PM 84.2 °F 84.4 °F 60.8 °F 45% 30.07 in 10.0 mi SSW 8.1 mph - N/A   Clear
4:27 PM 82.4 °F 82.5 °F 59.0 °F 45% 30.07 in 10.0 mi SW 5.8 mph 16.1 mph N/A   Clear
4:45 PM 82.4 °F 82.0 °F 57.2 °F 42% 30.07 in 10.0 mi SW 5.8 mph - N/A   Clear
5:06 PM 84.2 °F 83.0 °F 55.4 °F 37% 30.06 in 10.0 mi SSW 10.4 mph - N/A   Clear
5:27 PM 84.2 °F 83.0 °F 55.4 °F 37% 30.07 in 10.0 mi SW 6.9 mph 17.3 mph N/A   Clear
5:45 PM 84.2 °F 83.0 °F 55.4 °F 37% 30.07 in 10.0 mi SW 8.1 mph - N/A   Clear
6:06 PM 82.4 °F 82.5 °F 59.0 °F 45% 30.06 in 10.0 mi SW 4.6 mph - N/A   Clear
6:27 PM 82.4 °F 82.9 °F 60.8 °F 48% 30.05 in 10.0 mi SSW 8.1 mph - N/A   Clear
6:45 PM 80.6 °F 81.5 °F 60.8 °F 51% 30.06 in 10.0 mi SW 4.6 mph - N/A   Clear
7:06 PM 78.8 °F - 62.6 °F 57% 30.06 in 10.0 mi Calm Calm - N/A   Scattered Clouds
7:27 PM 78.8 °F - 62.6 °F 57% 30.06 in 10.0 mi Calm Calm - N/A   Mostly Cloudy
7:45 PM 77.0 °F - 62.6 °F 61% 30.07 in 10.0 mi SW 8.1 mph - N/A   Overcast
8:06 PM 69.8 °F - 66.2 °F 88% 30.12 in 1.0 mi NW 12.7 mph 26.5 mph N/A   Overcast
8:27 PM 69.8 °F - 66.2 °F 88% 30.11 in 3.0 mi WSW 4.6 mph - N/A   Mostly Cloudy
8:45 PM 69.8 °F - 66.2 °F 88% 30.11 in 1.8 mi Calm Calm - N/A   Unknown
9:06 PM 68.0 °F - 66.2 °F 94% 30.11 in 2.0 mi Calm Calm - N/A   Clear
9:27 PM 68.0 °F - 64.4 °F 88% 30.10 in 1.5 mi Calm Calm - N/A   Unknown
10:06 PM 68.0 °F - 64.4 °F 88% 30.11 in 1.2 mi Calm Calm - N/A   Unknown
10:27 PM 68.0 °F - 64.4 °F 88% 30.12 in 1.2 mi Calm Calm - N/A   Unknown
10:45 PM 68.0 °F - 66.2 °F 94% 30.11 in 2.0 mi Calm Calm - N/A   Clear
11:06 PM 68.0 °F - 64.4 °F 88% 30.10 in 1.5 mi Calm Calm - N/A   Unknown
11:27 PM 66.2 °F - 64.4 °F 94% 30.10 in 1.2 mi Calm Calm - N/A   Unknown
11:45 PM 66.2 °F - 64.4 °F 94% 30.10 in 1.5 mi Calm Calm - N/A   Unknown